Preview of NWS' New Version of Forecast
This preview is not operational and should not be used for support decisions.

Regional Weather Roundup (RWR)

Issued by National Weather Service (NWS)

                            
000
ASUS43 KMPX 221010
RWRMN 
WEATHER ROUNDUP FOR MINNESOTA
NATIONAL WEATHER SERVICE TWIN CITIES/CHANHASSEN MN
500 AM CDT MON APR 22 2019


NOTE: "FAIR" INDICATES FEW OR NO CLOUDS BELOW 12,000 FEET WITH NO
SIGNIFICANT WEATHER AND/OR OBSTRUCTIONS TO VISIBILITY. N/A MEANS
CURRENT SKY AND/OR WEATHER CONDITIONS ARE NOT AVAILABLE.

MNZ060>063-068>070-221100-
   Twin Cities Metro   
  
CITY           SKY/WX    TMP DP  RH WIND       PRES   REMARKS
TWIN CITIES    CLOUDY    46  41  82 NE13G22   29.92F                  
ST PAUL        CLOUDY    47  41  80 NE7       29.94S                  
CRYSTAL        CLOUDY    45  43  93 NE15      29.92F                  
BLAINE         CLOUDY    45  45 100 NE10G21   29.93F                  
LAKEVILLE        N/A     50  43  76 NE9G17    29.91R                  
EDEN PRAIRIE   CLOUDY    46  40  79 NE9       29.90F                  
SOUTH ST PAUL  CLOUDY    48  41  76 N8        29.92S                  
LAKE ELMO        N/A     46  43  87 N6        29.93F                  
$$
MNZ001>005-007-008-013>017-022>024-027-028-221100-
   Northwest Minnesota   
  
CITY           SKY/WX    TMP DP  RH WIND       PRES   REMARKS
BEMIDJI        FAIR      40  35  82 CALM      30.14R                  
HALLOCK        PTCLDY    37  36  93 S10       30.15R                  
ROSEAU         CLOUDY    41  36  81 S3        30.16R                  
WARROAD        CLOUDY    37  34  87 CALM      30.17R                  
THIEF RVR FALL PTCLDY    42  36  79 CALM      30.17R                  
CROOKSTON      PTCLDY    45  37  76 CALM      30.16R                  
FOSSTON        PTCLDY    36  34  93 CALM      30.15S                  
DETROIT LAKES  FAIR      45  37  76 E8        30.12S                  
MOORHEAD       CLOUDY    45  39  81 N7        30.14R                  
PARK RAPIDS    CLOUDY    43  37  79 NE8       30.10R                  
MAHNOMEN       FAIR      43  38  83 NE5       30.13S                  
$$
MNZ006-009>011-018-025>026-221100-
   North Central Minnesota   
  
CITY           SKY/WX    TMP DP  RH WIND       PRES   REMARKS
BAUDETTE       FAIR      37  33  85 SE6       30.17R                  
FLAG ISLAND    FAIR      34  28  80 S3        30.17R                  
INTL FALLS     FAIR      30  30 100 CALM      30.19R                  
WASKISH        FAIR      34  34 100 CALM      30.17R                  
BIG FORK       FAIR      36  34  93 CALM      30.19R                  
LONGVILLE      CLOUDY    41  37  87 N6        30.10F                  
GRAND RAPIDS   CLOUDY    42  36  79 VRB3      30.13R                  
ORR            FAIR      34  30  86 CALM      30.14R                  
WALKER         CLOUDY    41  36  81 N6        30.12S                  
$$
MNZ012-019>021-037-221100-
   Northeast Minnesota   
  
CITY           SKY/WX    TMP DP  RH WIND       PRES   REMARKS
DULUTH         LGT RAIN  42  32  67 E14       30.06F                  
ELY            FAIR      36  34  93 CALM      30.14S                  
HIBBING        MOCLDY    40  33  76 NE5       30.10S                  
EVELETH        MOCLDY    40  34  79 NE7       30.11F                  
DULUTH HARBOR  LGT RAIN  36  34  93 NE14      30.10F                  
TWO HARBORS    MOCLDY    41  30  65 NE10G17   30.11R                  
SILVER BAY     CLOUDY    41  27  56 NE8       30.11S                  
GRAND MARAIS     N/A     39  31  72 NE7       30.16R                  
G MARAIS ARPRT FAIR      37  25  60 N9        30.14R                  
$$
MNZ029>031-032-039>041-046>048-054>057-064-221100-
   West Central Minnesota   
  
CITY           SKY/WX    TMP DP  RH WIND       PRES   REMARKS
FERGUS FALLS   CLOUDY    45  37  76 NE9       30.07R                  
WHEATON        CLOUDY    45  39  81 N13G18    30.08R                  
MORRIS         CLOUDY    45  41  87 N14       29.96S                  
ALEXANDRIA     CLOUDY    47  38  71 NE15G24   30.03S                  
ELBOW LAKE     CLOUDY    43  40  87 NE14      30.06R                  
WADENA         CLOUDY    43  37  81 NE9       30.08R                  
GLENWOOD       FAIR      43  43 100 NE18      30.00S                  
APPLETON         N/A     46  41  81 NE20G25   29.98R                  
BENSON         CLOUDY    45  43  93 E12       30.00R                  
ORTONVILLE     CLOUDY    45  39  81 N20G25    30.00S                  
MADISON        DRIZZLE   48  45  87 N13       29.99R                  
WILLMAR        MOCLDY    43  43 100 NE15      29.97S                  
$$
MNZ033>034-036-042>043-049>051-058-059-221100-
   Central Minnesota     
  
CITY           SKY/WX    TMP DP  RH WIND       PRES   REMARKS
ST CLOUD       LGT RAIN  43  41  93 NE9G21    29.98S                  
SAUK CENTRE    LGT RAIN  43  41  93 N15G21    30.01R                  
PAYNESVILLE    RAIN      43  43 100 NE10G16   29.99R                  
AITKIN         LGT RAIN  39  36  87 N10       30.04S                  
PINE RIVER     CLOUDY    39  36  87 N6        30.12S                  
BRAINERD       CLOUDY    44  37  76 NE10      30.06R                  
STAPLES        CLOUDY    41  37  87 NE7       30.07R                  
LONG PRAIRIE   LGT RAIN  43  41  93 NE13G21   30.02R                  
LITTLE FALLS   LGT RAIN  43  43 100 NE5       30.04R                  
LITCHFIELD     LGT RAIN  45  45 100 N12       29.96F                  
BUFFALO        LGT RAIN  44  41  89 MISG      29.96S                  
MAPLE LAKE     LGT RAIN  44  43  95 N12       29.95F                  
HUTCHINSON     TSTM      45  44  97 N12G22    29.95R                  
$$
MNZ037-044-045-052-053-221100-
   East Central Minnesota   
  
CITY           SKY/WX    TMP DP  RH WIND       PRES   REMARKS
PRINCETON      RAIN      45  43  93 N14       29.97F                  
MORA           RAIN      37  36  93 NE6       30.03R                  
CAMBRIDGE      LGT RAIN  46  36  66 N10       29.97F                  
RUSH CITY      LGT RAIN  43  41  90 NE9       29.99R                  
MOOSE LAKE     LGT RAIN  41  37  87 NE6       30.05R                  
CLOQUET        MOCLDY    43  37  81 NE14      30.06S                  
MCGREGOR       CLOUDY    41  37  87 NE9       30.06F                  
$$
MNZ071>073-080-081-089-090-097-098-221100-
   Southwest Minnesota   
  
CITY           SKY/WX    TMP DP  RH WIND       PRES   REMARKS
MONTEVIDEO     CLOUDY    45  43  93 E10       29.98R                  
GRANITE FALLS  CLOUDY    46  44  93 N14G21    29.94F                  
MARSHALL       CLOUDY    44  42  93 N12       29.93F                  
REDWOOD FALLS  LGT RAIN  44  43  96 N17G26    29.88F                  
OLIVIA         HVY RAIN  43  41  93 NE15      29.93R                  
PIPESTONE      LGT RAIN  43  43 100 NE17G25   29.89F                  
WINDOM         CLOUDY    45  43  93 NE12G18   29.87R THUNDER          
WORTHINGTON    LGT RAIN  44  43  96 N17       29.86R                  
JACKSON        CLOUDY    45  41  87 NE18G25   29.86F THUNDER          
TRACY          LGT RAIN  44  44 100 CALM      29.94R                  
SLAYTON        RAIN      43  42  97 N17G23    29.91                   
$$
MNZ065>067-074>077-082>085-091>093-221100-
   South Central Minnesota  
  
CITY           SKY/WX    TMP DP  RH WIND       PRES   REMARKS
MANKATO        LGT RAIN  48  43  81 N16       29.88R                  
NEW ULM        CLOUDY    45  41  87 NE14      29.89S THUNDER          
ST JAMES       CLOUDY    45  41  87 NE13G21   29.87F                  
FAIRMONT       CLOUDY    47  43  86 N18       29.85F                  
WASECA         MOCLDY    50  43  76 NE17      29.86F                  
ALBERT LEA     LGT RAIN  55  50  82 N7        29.84S                  
$$
MNZ078>079-086>088-094>096-221100-
   Southeast Minnesota   
  
CITY           SKY/WX    TMP DP  RH WIND       PRES   REMARKS
ROCHESTER      MOCLDY    57  45  64 SE7       29.86S                  
RED WING       FAIR      52  30  43 E7        29.89S                  
DODGE CENTER   MOCLDY    52  43  71 N8        29.86S                  
WINONA         FAIR      54  43  66 CALM      29.88F                  
AUSTIN           N/A     63  43  48 SE5       29.84R                  
PRESTON        FAIR      58  45  61 S7        29.87S                  
$$
ABBREVIATIONS USED IN REMARKS
   TC - TEMPERATURES IN CELSIUS
  WCI - WIND CHILL INDEX
   HX - HEAT INDEX
  VSB - VISIBILITY 
$$